Theta_e
310 317 319 319 320 319 320 319 316 319 319 315 315 315 314 312 310 310 309 304 301 305 309 308 307 306 306 306 306 306 306 304 302 301 301 303 303 302 301 301 302 304 305 305 303 302 300 298 297 297 296 296 295 295 295 295 296 295 295 295 294 294 294 294 294 294 294 293 293 293 293 293 293 293 293 293 293 293 292 292 292 292 292 292 292 292
311 317 320 320 318 316 317 314 310 311 309 309 311 311 310 310 309 307 307 306 302 304 309 309 308 307 306 306 306 306 306 305 304 301 301 304 304 301 301 301 302 303 303 303 302 301 299 297 297 296 296 295 295 295 295 295 295 295 295 294 294 294 294 293 293 293 293 293 293 293 293 293 293 293 293 293 292 292 292 292 292 292 292 292 292 292
315 319 319 315 308 307 309 306 307 310 308 309 310 310 310 309 310 309 307 306 304 305 309 309 307 307 307 307 307 307 307 307 307 305 305 306 304 302 302 302 302 302 302 302 302 301 299 297 296 295 295 295 295 295 295 295 295 294 294 294 293 293 293 293 293 293 293 293 293 293 293 293 293 293 293 293 292 292 292 292 292 291 291 291 291 291
320 324 315 304 302 308 309 304 305 308 308 311 310 311 313 310 311 313 310 307 307 306 307 308 306 306 307 306 307 307 305 306 307 306 307 307 305 304 304 304 303 302 303 302 301 300 299 297 296 295 295 294 294 294 294 294 294 294 294 293 293 293 292 292 293 293 292 292 293 293 293 293 293 292 292 292 292 292 292 292 291 291 291 291 291 291
322 318 303 299 305 314 313 305 305 307 310 313 311 311 313 312 312 313 310 308 309 308 305 307 309 310 311 308 308 307 303 304 304 304 305 305 304 304 304 304 304 304 304 303 302 300 299 298 297 296 295 294 294 294 294 294 294 294 294 293 292 292 292 292 292 292 292 292 292 292 292 292 292 292 291 291 291 291 291 291 291 291 291 291 291 291
319 309 301 306 308 311 314 311 310 310 312 317 315 312 311 312 312 311 310 309 313 315 307 307 313 313 314 314 315 313 311 310 307 304 306 306 305 304 304 305 306 306 304 302 302 301 300 300 298 296 295 294 294 294 294 294 294 294 293 292 292 292 292 292 292 292 292 292 292 292 291 291 291 291 291 291 291 291 291 291 291 290 290 290 290 290
316 305 304 313 311 310 312 313 312 310 312 315 315 312 309 308 309 309 309 310 316 318 308 307 315 314 312 315 318 318 317 314 310 308 308 306 305 304 305 307 308 307 305 303 302 301 301 300 298 297 296 295 295 294 294 294 294 293 292 292 292 291 291 291 291 291 291 291 291 291 291 291 290 290 291 290 290 290 290 290 290 290 290 289 290 290
313 307 306 311 312 312 311 313 312 309 313 317 311 310 310 308 310 311 309 309 312 311 307 308 311 312 312 313 315 313 313 313 311 311 309 305 304 305 307 309 309 309 307 305 304 303 301 300 300 299 298 296 295 294 294 293 293 292 292 292 291 291 291 291 291 291 291 291 291 291 290 290 290 290 290 290 290 289 289 290 290 289 290 289 290 290
309 312 312 311 312 312 313 316 312 308 314 316 307 306 309 308 311 311 308 309 308 307 310 311 307 310 313 313 311 308 308 313 313 314 313 307 305 308 311 313 312 311 309 307 306 305 304 302 301 300 299 297 295 294 293 293 293 292 291 291 291 291 290 290 291 291 291 291 290 290 290 290 289 289 289 289 289 289 289 289 289 289 289 289 290 290
308 309 308 311 315 314 314 310 305 309 313 308 303 305 308 307 307 308 307 308 309 309 313 312 307 310 315 314 312 308 309 315 316 316 313 307 306 310 314 314 313 313 311 309 308 306 304 303 302 300 299 297 295 294 293 293 293 292 291 291 291 291 290 290 290 290 290 290 290 289 289 289 289 289 288 289 289 288 289 289 289 289 289 289 290 290
305 303 304 308 312 310 309 303 299 305 306 301 304 310 311 309 306 307 309 309 311 314 315 313 308 309 314 315 314 311 312 316 316 315 313 308 308 312 314 313 314 313 311 310 308 306 303 301 300 299 298 297 295 294 293 293 292 291 291 291 291 290 290 290 290 290 290 290 289 289 289 289 288 288 288 288 288 288 288 288 289 289 289 289 289 290
306 306 308 307 305 303 307 306 300 299 299 303 312 314 314 315 312 313 314 311 314 318 316 311 306 307 312 314 313 312 312 314 315 316 320 317 312 312 313 312 312 311 309 309 307 305 303 301 300 299 298 297 295 293 293 292 292 291 291 291 290 290 290 290 290 290 289 289 289 288 288 288 288 288 288 288 288 288 288 288 289 289 289 289 289 289
314 312 309 306 303 304 312 314 306 302 302 306 314 317 317 317 317 319 318 314 316 318 313 306 305 307 309 311 311 310 311 311 309 310 315 314 311 311 311 311 311 309 308 308 307 306 304 303 302 300 299 297 295 294 293 292 292 291 291 291 290 290 290 290 290 289 289 289 288 288 288 288 288 288 288 288 288 288 288 288 288 289 289 289 289 289
319 313 307 308 307 305 311 315 313 311 307 306 312 317 318 318 319 320 317 314 314 315 310 303 306 310 310 311 311 309 310 310 305 303 306 308 310 311 310 309 309 308 307 307 307 307 306 304 303 301 300 298 296 294 293 292 292 292 291 290 290 290 290 290 289 289 289 288 288 288 288 288 288 288 288 288 288 288 288 288 288 288 288 288 289 288
319 315 312 313 312 308 309 312 315 315 307 306 311 313 315 321 322 319 319 316 315 319 312 304 308 314 313 313 313 308 307 306 305 304 305 306 308 308 308 308 308 308 307 306 307 307 307 305 304 302 300 299 297 294 293 292 292 292 291 291 290 290 290 290 289 289 288 288 288 288 288 288 288 288 288 288 288 288 288 288 288 288 288 288 288 288
314 316 315 308 306 307 308 307 309 312 309 307 310 311 313 318 317 314 317 315 313 318 314 308 311 314 311 312 312 308 305 304 304 303 302 304 305 304 304 306 308 309 308 307 307 308 308 306 305 303 301 300 297 295 293 292 292 292 291 291 290 290 289 289 289 289 288 288 288 288 288 288 288 288 288 288 288 288 288 288 288 288 288 288 288 288
314 317 313 303 303 304 303 304 304 309 311 308 308 311 311 311 312 315 316 310 309 313 315 312 312 312 310 311 311 310 309 307 305 301 300 301 301 301 302 306 309 310 310 308 309 309 308 307 305 304 302 301 299 296 294 293 292 291 291 291 290 290 289 289 289 289 288 288 288 288 288 288 288 288 288 288 288 288 288 288 288 288 288 288 288 288
316 317 311 306 310 303 296 300 302 301 306 310 313 311 308 307 311 315 317 314 312 314 316 315 313 311 311 311 310 308 309 309 308 305 302 299 297 297 301 307 310 311 310 309 309 308 307 307 306 304 303 302 300 298 295 293 291 291 291 290 290 290 289 289 289 288 288 288 288 288 288 288 288 288 288 288 288 288 288 288 288 288 288 288 288 288
316 315 313 307 309 303 296 302 307 301 300 306 309 306 307 312 313 313 315 316 315 314 317 318 312 310 310 311 310 309 310 311 308 306 305 303 298 295 300 307 310 310 309 309 309 309 308 307 307 306 305 303 300 297 294 292 291 291 291 290 290 289 289 289 289 289 288 288 288 288 288 288 288 288 288 288 288 288 288 288 288 288 288 288 288 288
313 314 315 306 302 304 301 305 312 308 300 300 303 303 306 311 313 314 313 314 315 314 314 315 311 310 313 314 314 312 312 313 311 309 307 305 301 297 301 308 311 311 310 310 310 310 309 308 307 306 305 303 300 296 293 291 291 291 291 290 290 289 289 289 289 288 288 288 288 288 288 288 288 288 288 288 288 288 288 288 288 288 288 288 287 287
313 314 315 308 302 304 307 307 310 310 305 302 305 306 305 306 309 312 310 311 315 315 314 313 310 311 314 314 315 315 312 310 312 314 311 306 301 301 305 310 312 311 311 311 310 309 309 308 307 305 303 301 298 294 292 291 291 290 290 290 290 289 289 289 288 288 288 288 288 288 288 288 288 288 288 288 288 288 288 288 288 288 288 287 287 286
315 315 314 313 308 308 309 307 305 308 309 306 306 307 306 306 309 311 310 309 312 313 315 315 311 310 313 313 315 319 315 309 310 314 312 306 302 305 310 311 311 311 311 311 310 309 309 307 306 304 302 299 296 293 291 291 290 290 290 290 290 289 289 288 288 288 288 288 288 288 287 287 287 287 287 287 288 288 288 288 288 287 287 287 286 285
315 316 314 314 314 310 306 302 300 305 308 306 307 307 307 306 308 311 311 310 311 311 311 312 312 310 313 317 321 324 319 311 308 308 308 305 305 310 313 311 311 311 310 310 309 308 308 306 305 303 301 298 295 292 291 291 290 290 290 290 289 289 289 288 288 288 288 288 287 287 287 287 287 287 287 287 288 288 288 288 287 287 286 286 285 285
312 315 313 313 314 311 304 300 300 302 305 306 307 306 306 306 307 310 310 310 313 312 309 311 311 309 313 320 324 322 315 307 305 304 304 305 306 310 312 310 310 310 309 309 308 307 306 304 303 301 300 297 294 292 291 290 290 290 290 290 289 289 288 288 288 288 288 287 287 287 287 287 287 287 287 287 287 288 287 287 287 286 286 285 285 284
312 315 314 313 315 314 310 306 304 303 304 307 309 306 305 306 306 308 308 308 310 311 309 311 310 309 312 315 314 311 309 307 305 302 301 301 304 308 310 309 309 309 308 308 307 306 305 303 302 301 299 297 294 292 290 290 290 290 290 289 289 288 288 287 288 288 287 287 287 287 287 287 287 287 287 287 287 287 287 287 286 285 285 284 284 283
314 317 313 312 314 314 312 310 311 309 305 305 308 307 305 306 306 307 308 308 309 309 309 310 309 309 310 311 309 308 308 309 306 300 298 300 302 305 307 307 307 307 307 307 306 305 304 303 302 300 297 295 293 292 291 290 290 290 290 289 288 288 287 287 288 287 287 287 287 287 287 287 287 287 287 287 287 287 287 286 285 285 284 283 283 283
316 317 312 312 313 312 311 310 312 313 309 306 308 308 306 306 306 306 308 309 309 309 309 309 309 310 310 310 310 309 309 310 308 304 301 301 302 304 305 305 305 305 305 305 304 303 302 301 300 298 296 294 293 291 290 290 290 290 289 289 288 288 287 287 287 287 287 287 287 287 287 287 287 287 287 287 287 287 286 285 285 284 283 283 282 282
314 314 312 312 312 311 311 310 311 312 310 309 309 308 306 306 305 307 308 308 309 311 310 309 309 310 310 309 309 309 309 309 309 308 305 304 305 305 306 305 304 304 303 302 301 302 301 300 298 296 295 293 292 291 290 290 290 290 289 288 288 287 287 287 287 287 287 287 287 287 287 287 287 287 287 287 287 286 285 285 284 283 283 282 282 282
312 312 311 312 311 310 310 310 310 310 309 309 310 309 308 307 305 306 307 307 308 309 309 309 309 310 309 309 309 309 309 308 308 308 307 307 307 306 306 304 303 303 302 300 301 301 300 299 298 297 295 293 291 290 289 289 290 289 288 288 287 287 287 287 287 287 287 287 287 287 287 287 287 287 287 287 286 285 285 284 283 283 282 282 282 282
310 311 311 311 310 310 310 310 309 308 307 308 308 309 309 307 306 306 306 306 307 307 308 308 309 309 309 309 309 308 308 308 307 307 306 306 306 306 305 304 302 302 301 300 301 301 300 299 298 296 294 292 291 290 289 289 289 289 288 287 287 287 287 287 287 287 287 287 287 287 287 287 287 287 287 286 286 285 284 284 283 282 282 282 282 282
307 310 311 310 310 311 310 310 309 308 308 308 308 308 308 307 306 306 305 306 306 306 307 306 307 307 307 308 308 307 307 307 307 306 306 306 306 306 305 304 303 301 300 300 301 300 300 299 296 295 294 293 292 290 290 290 289 288 288 287 287 287 287 287 287 287 287 287 287 287 287 287 287 287 286 286 285 285 284 283 282 282 281 281 282 282
307 309 310 310 311 311 311 311 310 309 308 307 308 309 308 308 308 307 307 307 307 307 307 307 307 307 307 307 307 307 306 307 307 306 306 306 307 306 306 305 305 303 301 301 301 300 299 298 296 295 295 293 292 290 290 289 289 288 288 287 287 287 287 287 287 287 287 287 287 287 287 287 287 286 286 285 285 284 283 282 281 281 281 281 282 282
310 310 311 310 310 311 311 312 312 311 310 309 309 309 309 309 309 309 309 308 308 307 307 308 308 307 307 308 308 308 307 307 307 306 305 306 306 306 306 306 306 304 304 303 302 301 300 299 298 297 296 294 292 291 290 289 289 288 287 287 287 287 287 287 287 287 287 287 287 287 287 287 287 286 285 285 284 283 282 282 281 281 281 282 282 282
311 310 310 310 310 311 312 312 311 311 311 311 312 311 311 310 310 310 310 309 309 308 307 307 307 307 308 308 308 308 307 307 307 307 306 306 306 306 307 307 306 306 306 305 303 302 301 300 298 296 295 293 292 291 289 289 288 288 287 287 287 287 287 287 287 287 287 287 287 287 287 287 286 286 285 284 284 283 282 281 281 280 281 282 282 282
310 309 308 309 309 310 311 311 311 311 311 311 313 313 311 310 310 310 309 309 309 308 308 308 308 307 307 307 307 307 307 307 307 307 307 306 306 306 307 306 306 306 306 305 304 303 302 299 297 295 294 293 291 290 289 288 288 287 287 287 287 287 287 287 287 287 287 287 287 287 287 286 285 285 285 284 283 282 281 281 280 280 281 281 282 281
309 309 308 309 309 309 309 310 311 311 311 310 311 310 309 309 309 309 308 309 308 308 308 308 308 308 308 308 307 307 307 307 306 307 307 306 306 307 307 306 306 307 306 306 305 304 303 301 299 298 296 294 291 289 288 288 287 287 287 287 287 286 287 287 287 287 287 287 287 287 286 286 285 285 284 283 282 281 281 280 280 280 281 281 281 281
308 309 309 309 310 310 309 310 310 311 311 310 310 309 309 309 308 308 308 309 308 308 308 308 308 308 308 307 307 307 307 307 306 306 307 306 306 307 307 306 307 307 306 306 305 303 303 302 300 298 296 294 291 289 288 288 287 287 287 287 287 286 287 287 287 287 287 287 287 287 286 285 285 284 283 283 282 281 280 280 280 280 281 281 281 280
308 308 309 310 310 311 310 310 310 310 311 310 309 309 309 308 308 309 309 309 309 308 308 308 308 308 308 308 307 306 306 308 307 307 308 307 307 307 307 307 307 307 306 305 303 302 301 299 297 296 295 292 290 288 288 287 287 287 287 287 287 287 287 287 287 287 287 287 287 286 285 284 284 284 283 282 281 280 280 280 280 280 280 280 280 279
308 307 308 309 309 310 311 311 310 311 311 310 309 310 308 306 308 309 309 309 309 308 308 308 308 308 308 308 307 307 308 308 308 308 308 308 307 306 306 306 306 306 305 304 302 301 300 299 296 295 293 291 289 288 287 287 287 287 287 287 287 287 287 287 287 287 287 287 286 285 284 284 283 283 282 281 280 279 279 279 279 280 279 279 279 278
308 307 307 308 308 309 310 309 310 310 310 310 311 309 305 304 307 310 310 310 310 309 308 308 309 308 308 307 307 309 309 308 308 308 307 307 306 306 306 306 306 306 305 303 301 300 299 298 296 294 291 290 289 288 287 287 287 286 287 287 287 287 286 286 287 287 287 286 285 284 283 283 283 282 281 280 279 279 279 279 279 279 279 278 278 277
307 308 308 308 308 308 309 309 310 309 310 311 310 306 303 305 308 311 310 310 311 310 308 307 308 308 307 307 307 308 308 308 308 308 306 306 306 306 306 306 305 304 303 302 300 298 296 296 295 294 291 289 288 287 287 287 287 286 286 286 286 286 286 287 287 287 286 286 284 283 283 283 282 281 280 279 279 279 279 279 279 278 278 277 277 277
308 308 308 308 308 308 308 309 309 309 310 310 307 303 304 308 310 311 310 309 310 309 306 306 307 306 306 306 305 306 307 308 308 307 306 306 305 305 305 305 304 303 301 299 297 296 295 293 292 291 290 288 287 287 287 286 287 287 286 286 286 286 286 287 287 286 286 285 283 282 282 282 281 279 279 279 279 278 278 278 278 277 276 276 276 276
310 310 309 309 308 309 309 309 310 310 311 309 306 304 306 309 310 310 309 309 309 307 306 305 306 306 306 306 305 306 307 307 307 306 305 305 304 303 303 303 302 302 301 299 297 295 293 292 291 289 288 287 287 287 287 286 286 286 286 286 286 286 286 287 286 286 285 284 283 282 281 280 280 279 278 278 278 278 278 277 277 276 275 275 275 276
311 311 311 310 309 310 310 309 310 311 310 308 307 307 307 308 309 309 310 309 309 308 307 306 306 306 307 306 306 307 306 305 305 305 305 305 304 303 302 301 300 299 299 298 297 294 292 291 290 289 288 287 286 286 286 286 286 286 286 286 286 286 286 286 286 286 284 283 282 281 280 279 279 278 278 278 278 277 277 277 276 275 274 274 275 275
312 312 312 311 310 311 311 310 309 309 308 308 307 308 308 307 308 309 309 309 309 309 309 308 308 308 307 306 306 306 305 305 305 304 305 305 305 304 302 300 298 297 297 296 294 292 291 291 290 289 287 286 286 286 286 286 286 286 286 286 286 286 286 286 286 285 283 282 281 280 279 279 278 278 278 278 277 277 276 276 275 274 274 274 274 274
312 312 312 312 311 311 311 311 310 310 309 307 307 308 308 308 308 308 308 308 308 309 309 309 309 309 308 307 306 305 305 305 305 304 304 304 304 303 301 298 296 295 294 293 292 290 289 289 289 288 287 286 285 285 285 285 285 286 286 286 286 286 286 286 285 284 283 281 280 279 278 278 277 277 277 277 276 276 275 275 274 274 274 273 274 274
312 312 311 311 312 312 312 312 312 311 309 308 307 307 307 308 308 308 307 307 307 308 309 308 308 308 308 307 306 306 306 305 304 303 302 302 301 301 299 298 295 294 294 294 293 291 289 288 288 287 286 286 285 285 285 285 285 285 286 286 286 286 286 286 285 283 282 280 279 278 278 277 277 277 277 276 275 275 275 274 274 273 273 273 273 273
312 311 312 311 312 312 312 312 311 311 310 309 308 307 307 307 308 308 308 308 308 308 308 308 308 307 307 307 307 306 306 305 304 303 302 301 300 299 298 296 295 294 293 292 292 291 289 288 287 287 286 286 285 285 285 285 285 285 285 286 286 286 286 285 284 282 281 279 278 278 277 277 277 277 276 275 274 274 274 274 273 273 273 273 273 272
311 311 312 312 311 311 312 311 311 311 310 310 309 308 308 308 308 308 308 308 307 308 308 307 307 307 306 306 306 305 305 305 304 303 302 301 300 298 297 296 295 294 293 292 291 290 289 288 287 286 286 286 285 285 285 285 285 285 285 286 286 286 285 285 283 281 280 279 278 277 277 276 276 277 276 275 274 273 273 273 273 273 272 272 272 271
310 311 311 312 312 312 312 311 311 312 311 311 310 309 309 309 309 308 308 308 307 308 308 307 307 307 306 306 306 305 304 304 304 303 302 301 301 300 298 296 294 293 292 291 290 288 287 286 286 286 286 286 285 285 285 285 285 285 285 285 285 285 285 284 282 281 279 278 277 277 276 276 276 276 275 274 273 272 272 272 272 272 272 272 271 271
311 311 312 312 312 312 312 311 311 311 311 311 310 311 311 310 309 308 308 308 308 308 308 308 307 306 306 306 305 304 304 304 303 302 301 301 301 300 298 296 295 293 291 290 289 287 285 284 285 285 286 285 285 285 285 285 285 285 285 285 285 285 284 283 281 280 278 277 276 276 276 276 276 275 274 273 272 272 272 271 271 271 271 271 271 272
Wind_Speed
3 0 3 7 8 7 8 8 6 4 6 5 4 4 5 6 7 7 4 3 1 2 8 10 9 12 17 17 22 23 15 19 28 24 25 33 36 33 33 36 38 42 43 41 42 44 44 44 42 41 39 37 35 33 32 31 29 27 25 23 22 20 18 16 14 11 10 9 7 7 7 8 8 9 10 12 13 15 16 17 18 20 21 23 25 27
4 2 8 10 8 6 5 6 6 5 5 4 4 4 5 5 7 8 4 4 2 1 6 7 8 13 17 16 22 23 13 19 26 19 25 37 37 32 32 36 38 39 39 39 42 44 45 45 43 42 40 39 38 36 34 32 29 27 25 23 22 20 18 15 14 12 11 9 8 8 8 8 9 10 11 12 14 15 17 18 20 21 23 24 25 27
2 6 11 7 7 7 4 5 7 5 5 3 3 2 4 4 5 7 4 4 2 2 4 6 8 15 18 17 23 24 16 24 30 22 29 39 34 31 32 36 37 36 38 39 42 43 44 46 44 43 42 40 39 36 34 32 29 28 25 23 22 20 18 16 14 13 11 10 9 9 9 9 10 11 12 13 14 15 17 19 20 22 23 24 25 27
2 8 8 6 10 8 5 4 6 5 3 3 4 3 5 3 1 4 4 4 2 2 4 7 10 14 15 16 20 19 14 23 30 26 33 39 34 32 33 34 34 34 38 40 41 42 43 45 46 46 45 42 39 37 35 32 31 29 26 24 23 20 18 17 15 13 12 11 10 10 10 10 11 12 13 14 15 16 17 18 20 21 23 24 25 27
7 7 6 9 7 8 6 4 6 5 2 3 5 7 6 4 5 6 3 4 3 2 3 5 11 10 7 10 11 7 4 12 19 19 28 35 33 32 32 31 32 34 36 38 38 40 41 45 48 48 46 44 42 40 38 35 32 29 26 25 23 21 20 18 15 14 12 11 11 11 11 12 12 13 15 16 16 17 18 19 20 22 24 25 26 27
9 7 11 9 3 6 6 4 6 8 3 4 6 11 10 7 7 6 3 5 4 3 3 4 8 8 2 4 8 4 3 8 9 9 21 30 24 25 30 30 31 33 33 35 36 37 39 42 47 48 48 46 45 44 40 36 33 29 27 26 24 23 20 18 16 14 13 12 12 12 12 13 14 14 16 17 18 19 20 21 22 23 24 26 27 29
4 3 7 6 5 6 5 5 6 8 5 3 5 8 8 6 4 4 1 2 1 3 3 4 1 9 4 3 7 5 5 10 10 8 17 26 21 21 28 28 29 31 31 32 33 35 37 39 45 49 50 49 48 45 40 35 32 29 28 27 25 23 20 18 16 14 13 13 13 13 14 15 16 16 17 18 20 21 21 22 23 24 24 25 27 29
2 4 4 4 6 5 5 6 7 10 7 4 3 5 6 6 5 5 3 2 3 1 3 0 3 9 9 6 6 4 5 11 14 13 15 20 22 24 27 26 26 28 29 30 32 33 35 37 41 46 49 50 49 44 39 36 33 30 29 28 26 23 21 19 17 15 14 13 14 14 15 16 17 18 18 19 20 21 22 23 24 24 24 25 26 29
3 5 5 6 5 4 6 5 8 12 5 4 4 6 6 6 5 4 4 3 2 3 4 4 4 5 10 5 1 3 3 10 14 16 14 14 20 23 22 21 21 23 26 28 29 31 32 34 37 41 45 48 47 44 40 36 33 31 30 29 26 24 21 19 17 15 14 14 14 15 15 16 17 18 19 19 21 22 23 24 24 25 26 26 27 29
2 3 5 8 6 5 5 1 4 8 3 4 6 6 5 4 4 3 3 2 1 1 7 8 7 5 10 4 3 2 3 9 11 12 12 12 18 19 17 16 16 20 23 24 26 28 30 32 33 36 41 45 46 44 40 36 34 33 32 30 28 25 22 20 17 16 15 15 15 15 16 16 16 18 19 20 21 22 24 25 25 26 27 27 28 30
1 2 1 3 4 5 5 3 2 3 3 8 7 5 5 4 4 3 1 3 1 4 9 10 13 10 8 3 5 4 5 9 10 9 8 10 16 18 15 13 14 17 19 19 22 26 28 30 30 34 38 42 44 44 41 38 37 36 34 32 29 26 23 20 18 16 16 15 15 15 15 16 16 17 19 20 21 22 24 25 26 27 28 28 29 31
1 1 2 3 5 7 8 5 4 4 4 6 5 3 3 4 3 4 4 3 1 6 6 5 9 11 10 6 4 6 7 8 9 9 8 8 13 16 12 11 13 15 15 16 20 24 27 29 31 34 37 41 44 45 44 42 40 38 36 33 30 26 23 21 19 17 16 15 14 14 15 15 16 18 19 20 21 22 24 25 26 27 28 28 29 30
2 4 3 2 5 8 6 4 3 3 2 4 4 4 2 4 3 4 3 1 3 8 4 2 4 5 12 11 7 8 11 11 10 11 12 10 13 15 11 11 14 14 15 16 19 22 26 29 32 34 36 40 44 47 47 45 43 40 38 34 31 27 24 21 19 17 15 14 14 14 14 15 17 18 19 20 21 23 24 26 27 28 29 30 30 31
3 4 2 3 4 9 10 5 3 2 3 6 5 5 3 1 0 4 4 2 5 8 3 3 3 4 8 8 12 17 18 17 16 19 21 16 16 18 15 16 17 19 19 18 19 22 25 28 30 32 35 38 43 47 48 47 45 42 39 35 31 27 24 21 19 17 15 14 13 13 14 15 17 17 18 20 21 23 24 26 28 28 30 31 32 34
4 7 5 6 3 11 14 8 6 6 5 5 4 5 5 5 4 5 4 4 7 7 4 1 2 4 4 3 9 14 16 18 20 24 24 22 23 22 21 22 23 24 23 20 20 22 23 25 27 30 33 37 42 47 49 48 46 44 40 36 32 28 24 21 19 16 14 13 13 13 14 15 16 17 18 19 21 23 24 26 28 29 30 33 34 36
4 9 6 2 2 10 10 4 6 8 3 3 3 4 3 4 5 3 3 4 2 5 5 3 4 6 4 3 5 5 7 12 17 19 18 23 27 23 23 27 27 27 25 21 20 20 21 23 26 29 32 36 41 47 50 50 48 45 41 36 31 28 24 21 19 16 14 13 13 13 14 15 15 16 17 19 20 23 25 26 29 30 32 34 36 38
3 6 3 2 1 5 3 0 3 3 3 3 2 3 3 3 5 2 3 1 4 3 7 2 6 9 5 5 7 6 5 8 10 10 13 22 24 19 23 29 28 26 23 21 20 19 20 23 26 28 31 35 40 46 50 51 49 46 41 36 32 28 25 22 19 16 13 13 13 14 14 14 15 16 17 19 21 23 25 27 29 32 33 35 38 41
4 5 4 3 2 2 2 2 2 2 4 5 3 5 2 2 3 3 2 3 2 5 6 4 12 14 9 7 3 5 6 10 11 8 10 16 16 16 26 30 26 24 22 20 21 21 22 24 26 28 30 34 39 44 49 50 48 44 39 35 32 28 25 22 18 15 14 14 14 13 13 13 14 16 17 20 22 24 26 28 30 33 35 37 40 43
4 4 5 2 2 0 3 2 1 3 3 4 3 2 3 3 2 2 2 3 4 4 4 11 17 15 11 7 2 5 10 14 13 9 10 13 12 17 28 30 26 25 24 22 22 23 24 25 26 27 30 34 39 44 48 49 47 44 40 36 32 28 25 21 18 16 15 15 14 13 13 13 14 16 18 21 23 26 28 30 32 35 37 39 42 45
3 3 4 2 2 1 2 1 4 2 1 3 1 1 2 2 4 3 3 2 3 3 5 12 16 13 8 7 8 11 14 14 11 10 11 13 16 23 29 29 28 27 26 24 24 24 25 26 26 28 30 34 39 44 47 48 47 45 41 37 32 29 26 22 19 17 16 15 13 13 13 13 15 17 19 22 24 27 29 32 34 37 39 42 44 46
3 3 5 2 3 1 3 6 8 9 6 4 3 2 1 1 2 1 2 2 4 4 4 6 12 14 6 7 10 12 13 12 12 12 12 13 20 28 30 29 28 27 26 25 24 24 25 26 28 30 33 36 40 43 46 48 48 45 42 37 33 29 26 22 20 18 16 15 13 13 13 14 16 18 21 23 26 29 31 33 36 39 41 44 45 46
3 3 6 3 2 5 7 6 3 5 8 8 8 8 8 6 4 1 5 3 3 4 4 4 10 17 6 6 7 8 8 9 11 12 11 13 22 29 30 30 28 27 27 25 24 25 25 27 29 32 35 38 41 44 46 48 48 46 42 37 33 30 26 23 20 18 16 14 13 13 13 15 17 20 22 25 27 30 32 35 38 40 43 45 45 45
4 2 4 7 8 7 5 1 1 2 5 5 4 5 6 7 7 6 8 5 2 2 3 3 6 16 5 6 5 5 7 10 13 14 11 14 24 28 27 28 27 27 28 25 25 26 27 29 31 33 36 39 41 44 47 50 49 46 42 37 33 29 26 23 20 18 16 14 13 13 14 16 18 21 23 26 29 31 34 37 39 41 43 45 45 44
4 2 4 7 7 3 3 4 3 2 5 2 4 4 6 8 9 8 6 3 2 5 4 3 7 16 7 3 4 6 6 10 14 17 15 16 23 26 25 26 26 28 28 26 27 28 29 31 33 35 37 39 41 45 48 50 49 45 41 37 33 29 25 23 20 18 16 14 13 13 15 17 19 22 25 28 30 33 35 38 40 42 43 43 43 42
6 3 4 5 6 5 4 2 3 3 1 4 5 5 8 10 8 4 1 1 5 9 7 5 11 17 7 2 2 5 6 8 11 16 18 18 21 24 25 25 26 27 27 28 29 30 31 32 34 36 38 40 42 46 49 50 48 44 40 36 32 28 25 23 20 17 15 14 13 14 15 18 20 23 26 29 32 34 36 39 40 42 42 41 41 39
9 4 7 7 8 10 11 9 5 2 3 3 3 6 10 13 14 9 3 6 12 8 8 7 15 19 12 5 4 5 7 8 10 13 17 20 24 25 25 27 28 28 29 30 31 31 32 33 34 36 38 40 43 47 50 50 47 43 39 35 31 28 25 23 20 17 15 14 14 14 16 18 21 24 27 30 33 35 37 39 40 40 40 39 38 38
5 3 10 13 15 14 16 17 8 7 5 6 7 10 13 15 17 12 7 11 10 3 5 15 21 21 21 19 15 9 7 10 11 10 12 19 25 27 29 32 32 31 32 32 31 31 32 33 35 37 38 40 43 48 50 49 45 42 38 34 31 28 26 22 19 17 15 14 14 15 16 19 21 24 28 30 33 35 37 38 39 38 38 37 37 38
3 5 14 19 22 21 21 23 12 9 8 10 10 13 14 15 16 14 16 19 8 4 11 23 23 19 20 27 29 19 13 14 14 13 14 20 25 28 30 32 31 31 33 32 31 32 34 35 36 36 38 41 44 48 49 46 43 41 37 34 31 28 25 22 19 17 15 14 15 15 17 19 22 25 28 31 33 35 36 37 37 36 35 36 37 38
2 8 15 18 23 22 20 23 15 8 8 9 10 14 16 17 18 19 24 24 14 12 19 22 19 17 19 29 34 23 15 17 19 23 24 24 25 25 25 27 29 31 32 32 33 34 35 36 37 37 39 42 45 48 48 46 43 40 37 34 31 28 25 21 19 16 15 14 14 15 17 20 23 26 28 31 32 34 35 35 35 34 34 35 36 37
2 7 13 16 19 18 19 22 16 9 8 9 9 12 17 20 19 20 25 28 25 24 23 20 19 20 23 31 29 20 20 22 22 25 28 26 26 25 25 28 30 32 33 33 34 35 35 36 37 38 39 42 47 50 49 48 45 41 37 34 31 28 24 21 18 16 15 15 14 15 18 20 23 26 29 31 32 33 34 34 33 33 33 34 34 35
4 8 11 12 12 14 19 22 14 9 12 13 10 13 23 23 15 17 25 26 23 22 20 19 19 19 26 30 21 18 27 28 21 22 28 33 34 30 29 31 31 33 34 34 34 34 34 35 37 38 41 43 47 50 50 49 46 40 37 34 31 27 23 20 18 16 15 14 14 16 18 20 24 26 28 30 32 32 33 32 32 32 32 33 33 32
4 6 7 8 9 11 16 18 12 8 8 9 13 22 29 23 15 20 24 20 15 15 17 18 16 17 24 21 12 14 23 21 17 20 28 35 37 33 32 35 37 36 34 34 36 35 34 37 39 40 42 44 48 51 52 49 45 40 37 34 30 26 22 19 17 16 15 14 14 16 18 21 24 26 28 29 31 31 31 31 31 31 32 31 31 31
5 4 4 7 9 11 15 16 8 4 3 8 14 21 24 21 20 24 25 19 14 12 13 15 16 20 23 17 13 18 18 13 15 22 28 32 33 32 34 40 42 38 35 37 37 36 36 38 40 40 41 44 47 51 52 49 44 40 36 32 28 25 22 19 17 15 14 13 14 17 19 22 24 26 27 29 30 30 30 30 30 30 30 30 30 30
5 6 7 7 8 11 11 6 1 3 11 13 7 8 16 21 24 26 25 22 16 13 14 17 20 25 25 20 18 20 19 22 27 34 37 34 30 30 38 44 42 37 37 39 37 36 36 37 38 40 40 42 46 50 50 45 41 38 35 31 27 24 21 18 16 14 13 13 15 17 20 23 24 25 27 28 28 29 29 30 30 29 29 29 29 30
8 9 8 6 7 7 1 3 3 11 14 8 2 6 15 17 18 22 22 19 17 18 22 24 25 28 28 24 21 22 29 39 42 45 46 36 29 34 42 44 40 38 39 39 36 36 36 36 38 39 41 43 46 49 48 44 40 38 35 31 27 23 20 17 15 13 12 13 16 18 21 23 23 24 26 27 27 28 28 29 28 28 28 28 28 30
11 9 6 6 7 3 2 6 12 11 5 5 9 15 14 9 10 15 16 15 16 20 24 24 23 28 28 23 24 32 40 40 37 44 47 35 31 42 47 43 42 42 42 41 38 36 35 36 37 39 40 43 46 48 48 45 42 39 34 30 26 22 19 16 14 12 12 14 16 19 21 22 22 24 25 26 26 27 27 28 27 27 28 28 28 29
13 11 8 8 9 7 7 11 10 8 8 10 16 19 13 8 10 11 10 13 15 20 24 21 20 27 25 20 28 38 35 22 18 31 43 37 36 45 46 42 42 41 39 38 35 32 32 34 36 38 40 42 45 48 48 45 43 38 33 30 26 22 19 16 13 12 12 14 17 19 21 21 22 23 24 24 25 26 26 27 27 26 27 28 28 29
15 14 11 10 10 8 9 10 8 8 10 14 21 25 18 9 9 8 6 10 16 24 27 20 20 26 23 20 27 25 16 10 9 19 37 41 36 36 36 34 33 31 29 30 29 28 31 34 36 38 39 41 45 49 48 45 42 38 33 29 25 21 19 15 13 12 12 15 17 19 19 20 20 22 23 23 24 26 26 26 25 25 26 27 28 29
18 13 12 12 9 7 10 10 9 10 10 11 19 25 15 9 10 5 2 10 20 27 28 21 21 25 20 20 24 14 5 9 10 15 36 43 32 27 28 26 24 23 23 25 25 28 31 34 35 36 37 41 47 50 48 45 41 36 32 28 25 21 18 15 13 12 13 15 17 18 17 18 19 21 21 22 23 25 25 25 24 25 25 26 28 29
16 10 10 12 11 12 13 10 8 8 7 10 17 17 8 17 14 5 4 16 21 23 24 20 19 22 20 19 19 11 8 12 14 20 34 35 25 22 23 22 21 21 21 23 25 27 29 31 34 37 39 44 49 50 47 44 40 35 32 28 24 21 17 14 12 11 13 15 16 16 16 16 18 20 20 21 22 23 24 24 24 24 24 25 27 28
10 10 11 13 14 16 15 13 11 7 6 12 14 7 15 18 10 4 14 21 14 11 19 20 18 23 25 19 13 11 17 28 32 32 31 25 20 20 19 19 21 20 19 22 26 27 29 30 33 36 40 46 50 49 47 43 39 35 31 27 23 20 16 13 11 12 13 15 15 14 15 15 17 18 19 21 22 22 22 23 23 23 24 25 27 28
6 6 9 11 13 13 13 14 12 6 9 15 12 16 19 10 5 12 22 25 14 8 16 23 24 28 29 24 21 24 32 40 41 36 32 28 25 22 20 22 23 22 21 22 23 25 29 31 33 36 42 48 50 49 46 43 38 34 31 26 22 19 15 12 11 12 13 13 13 13 13 14 16 17 18 20 22 21 20 21 22 23 23 24 27 29
10 7 7 9 10 9 9 11 9 6 13 19 14 11 11 10 15 19 22 27 26 20 20 24 27 30 29 27 29 35 38 38 35 34 34 32 28 25 24 24 24 24 23 23 24 26 30 33 37 42 46 50 51 48 45 42 37 34 30 25 22 18 14 12 12 12 12 12 12 11 12 13 14 16 17 20 20 19 19 20 20 22 23 24 27 29
11 9 7 7 9 8 8 11 10 9 15 24 21 11 15 29 37 34 23 21 29 32 29 26 29 34 32 29 31 35 37 35 33 34 35 33 31 29 26 25 25 25 24 24 26 29 32 36 40 45 49 51 51 47 44 40 37 33 29 25 21 17 14 13 12 11 11 11 10 9 10 12 13 15 17 19 19 17 17 19 20 21 22 23 26 28
14 16 15 12 11 12 13 13 12 12 17 26 31 27 33 45 54 51 39 27 27 34 35 30 31 37 37 35 34 34 35 37 37 38 37 36 36 34 30 29 28 27 25 26 28 31 35 38 43 49 52 52 49 46 42 39 35 32 28 24 20 16 14 12 11 10 10 10 8 8 9 11 12 14 16 18 18 16 16 18 19 21 22 22 24 27
17 20 18 13 10 12 15 12 9 11 16 24 36 42 44 46 49 52 49 39 33 38 40 36 35 39 38 36 36 35 38 41 41 41 40 38 36 35 33 31 30 27 27 28 31 35 38 41 45 51 54 53 49 45 41 38 34 30 26 23 19 16 14 12 10 10 10 8 6 6 8 11 12 13 16 16 15 15 16 17 18 20 22 22 24 25
13 17 16 13 12 13 13 11 13 17 20 24 33 40 43 45 46 47 46 43 44 48 47 43 42 40 35 33 35 39 42 42 40 40 40 39 38 37 35 34 34 32 31 31 33 37 41 46 50 54 56 54 49 45 41 38 34 30 25 22 19 16 14 11 10 10 9 7 6 6 7 9 10 12 15 15 13 13 14 16 17 20 22 23 24 25
10 16 16 14 15 15 14 14 17 23 28 33 34 33 34 42 47 46 46 48 49 51 50 46 43 39 35 36 39 42 42 40 40 41 41 41 40 39 37 37 36 35 33 34 36 39 43 49 54 56 56 53 49 45 41 37 33 29 25 21 18 16 13 11 10 10 9 7 6 6 7 8 9 11 13 12 12 12 13 14 15 17 20 21 23 24
5 9 10 11 14 16 17 17 16 17 20 26 31 34 37 42 47 49 51 50 48 47 48 46 44 41 41 44 45 43 41 41 43 44 43 43 42 41 40 39 38 37 36 37 39 42 46 51 55 56 54 51 47 44 40 35 31 27 24 20 18 15 12 11 11 10 8 7 6 6 7 7 9 10 10 9 9 12 14 15 15 16 18 19 19 20
7 8 8 10 13 14 14 15 17 17 14 17 27 39 45 47 48 48 47 46 45 47 49 49 48 45 44 46 47 44 44 45 46 44 43 44 44 43 42 41 39 38 39 39 41 44 48 52 54 53 51 48 45 41 37 34 30 26 23 20 18 14 12 11 10 9 8 7 6 6 7 7 9 10 9 7 6 8 10 13 16 17 17 17 16 15
11 11 9 11 15 16 15 15 17 16 15 20 32 42 46 48 47 45 45 47 49 51 51 51 49 47 47 49 50 48 48 49 47 44 44 44 44 43 43 43 42 42 42 43 44 47 51 53 52 50 48 45 43 40 36 32 29 25 22 20 17 14 12 11 10 9 8 7 6 6 6 7 8 9 7 6 6 6 7 8 10 12 15 16 16 15
Wind_Direction
95 229 224 227 228 205 207 201 188 176 146 138 150 186 230 239 262 266 256 282 87 215 258 253 252 264 267 270 274 275 267 254 255 255 258 260 257 250 244 243 241 242 244 241 235 230 227 226 226 226 226 227 225 224 225 226 227 227 226 228 228 229 230 229 230 233 238 245 253 264 278 287 295 306 313 316 317 316 311 310 311 312 315 317 318 318
91 204 242 233 216 188 192 178 132 117 124 120 158 207 255 235 254 269 273 320 6 188 261 274 277 268 265 269 272 270 257 255 255 246 252 260 259 253 246 246 246 246 246 241 236 231 226 225 225 225 226 226 226 224 224 225 226 227 227 227 227 227 227 227 229 234 240 247 255 265 277 288 297 305 313 314 313 314 312 312 314 316 317 317 316 316
79 238 249 217 154 118 88 119 123 125 129 122 141 179 260 241 271 290 310 346 9 202 270 294 286 270 265 264 267 266 250 256 262 250 253 260 259 253 248 248 247 246 245 242 238 233 227 225 224 225 226 226 226 226 226 226 226 227 227 226 225 225 225 227 232 236 242 251 259 269 281 293 301 306 312 314 313 313 314 314 315 315 315 313 313 315
186 251 246 162 138 115 80 106 118 110 127 155 147 179 250 239 285 284 305 328 284 227 280 292 278 267 263 256 261 269 259 259 264 257 257 259 256 253 253 253 250 247 246 243 239 235 228 225 223 225 225 225 224 223 224 225 225 227 226 225 225 224 226 229 234 240 247 254 264 275 285 295 302 306 309 311 310 311 314 314 312 311 310 310 313 316
229 235 154 129 132 123 115 139 142 146 219 240 195 210 239 226 222 237 282 323 306 313 327 310 291 278 258 250 259 283 291 266 263 257 257 257 253 253 254 253 252 251 249 245 241 236 230 226 225 225 225 224 223 223 223 224 226 227 227 225 224 224 226 230 235 241 250 258 269 279 288 295 301 304 305 306 307 309 312 313 312 312 312 313 317 320
251 212 148 133 120 124 139 194 188 174 203 287 229 217 225 223 231 249 323 352 349 327 331 7 320 298 248 235 266 287 323 285 263 246 261 264 257 248 248 249 252 253 250 247 244 240 235 231 227 225 225 224 225 225 224 224 227 227 225 224 224 225 227 231 237 243 252 262 272 282 289 293 297 300 303 305 308 311 313 315 315 316 316 317 321 323
252 172 145 153 162 158 176 233 221 173 154 285 245 207 206 200 212 241 287 351 275 252 303 54 335 280 262 211 269 287 304 287 272 251 261 268 264 250 249 252 253 253 250 246 245 243 239 233 227 226 226 226 227 226 224 224 225 224 222 223 224 226 228 233 239 245 254 264 274 282 287 291 294 299 304 307 310 312 313 316 316 316 317 319 322 322
148 109 91 120 141 158 191 242 217 158 143 239 232 134 139 152 175 197 162 193 240 272 323 330 184 273 275 238 257 291 296 285 279 272 265 264 262 255 255 258 257 256 253 248 246 244 241 235 231 231 230 230 229 226 223 222 223 222 223 224 225 227 230 234 240 248 256 266 274 280 286 291 294 299 305 309 309 311 312 314 315 316 318 321 323 321
121 151 179 147 129 174 201 235 191 159 158 236 187 115 121 140 151 155 142 190 266 24 304 248 168 266 275 242 285 5 262 263 266 264 264 262 259 256 255 258 259 260 258 254 253 250 247 242 238 236 234 232 229 225 223 222 222 223 224 224 225 228 231 235 241 249 257 265 273 279 285 291 296 301 306 309 310 311 312 314 316 318 321 324 324 320
71 160 197 153 149 207 207 283 176 170 198 171 131 93 79 77 81 92 128 156 6 345 257 237 170 224 273 224 138 57 208 239 253 257 261 262 259 255 250 252 258 261 261 260 259 255 251 248 244 238 234 232 229 225 223 222 222 223 224 224 226 228 232 236 242 250 257 264 271 279 285 291 297 302 305 308 310 312 313 315 319 321 323 325 324 319
67 74 262 166 174 176 137 75 61 120 141 126 108 70 51 42 54 49 61 92 2 270 255 236 182 192 269 251 169 198 202 210 224 243 258 262 258 252 246 248 259 266 267 265 261 254 249 246 241 237 234 232 228 223 221 220 221 222 224 225 226 228 232 236 242 249 257 264 271 278 285 292 298 301 305 307 310 312 313 317 320 322 324 325 323 319
5 95 259 213 169 132 103 71 42 56 103 112 94 73 33 339 13 16 358 56 278 255 262 249 178 184 242 255 206 238 248 219 207 221 232 237 246 244 241 248 262 271 272 265 258 252 245 240 236 233 232 230 225 221 220 219 220 222 223 224 226 228 232 236 242 249 255 262 270 277 285 293 298 302 306 308 311 313 316 319 321 322 323 322 320 318
294 222 220 178 177 163 125 76 34 13 66 108 98 90 40 321 354 348 302 126 230 252 253 147 143 206 243 248 238 249 257 238 215 217 218 213 229 236 238 249 261 270 270 263 256 251 246 240 236 233 230 227 223 221 220 219 220 221 223 224 226 228 231 236 242 247 253 260 269 279 288 294 299 303 307 310 314 317 320 321 323 324 323 321 319 318
292 292 152 155 224 189 168 164 208 241 174 164 148 129 144 161 98 277 268 275 270 270 267 138 142 260 269 257 226 225 235 230 219 224 225 226 235 241 246 254 263 268 266 263 258 253 250 245 240 237 232 227 223 221 220 220 220 221 222 224 225 227 231 235 241 245 250 259 270 280 289 295 299 303 307 312 316 320 322 323 323 324 323 321 320 319
247 287 201 177 206 176 182 200 179 138 148 180 154 140 161 153 181 236 233 250 275 291 292 211 176 222 240 261 220 220 236 236 230 231 232 238 245 249 255 258 262 264 263 262 258 256 254 250 244 239 234 230 225 222 220 220 220 222 223 224 225 227 230 234 238 241 249 260 271 281 288 293 299 303 308 313 318 321 322 322 322 323 322 320 320 320
223 268 231 177 128 159 180 209 124 110 132 197 122 127 182 174 179 234 221 198 245 317 289 230 219 224 216 287 262 238 261 248 237 236 235 241 246 249 254 256 256 258 260 258 254 253 252 248 244 240 237 232 227 223 221 221 221 221 222 222 224 226 229 232 235 240 250 261 271 280 286 292 298 304 310 314 319 320 320 321 321 321 320 319 319 319
208 273 264 67 66 167 170 69 107 117 169 168 150 175 207 173 141 169 267 23 72 280 274 249 254 271 298 292 240 203 230 246 237 232 230 238 242 243 247 250 251 252 254 252 248 249 248 244 242 240 238 234 229 225 223 221 221 221 222 223 224 225 227 230 235 241 249 259 268 276 282 291 297 305 311 314 317 318 319 320 320 319 318 319 319 319
196 267 250 150 187 213 91 74 36 19 119 130 192 210 179 117 99 110 251 343 25 246 272 288 269 273 285 284 235 165 218 242 237 227 231 240 237 236 243 244 244 245 246 246 245 244 243 242 241 240 239 237 233 229 224 221 219 220 222 224 225 225 227 230 235 240 247 256 264 271 279 290 297 305 311 314 316 317 319 320 320 319 318 318 319 319
175 250 265 130 116 86 74 108 88 5 78 126 193 206 111 144 166 109 172 241 254 245 278 280 275 271 255 245 192 177 217 231 233 224 228 239 229 230 239 239 236 239 240 240 240 239 238 238 240 239 239 237 233 228 223 219 218 219 221 222 223 225 227 231 234 239 246 252 259 268 277 287 297 305 310 313 315 317 320 321 320 319 319 319 320 321
150 214 263 7 7 4 49 165 189 200 54 74 150 6 55 162 177 165 170 186 213 228 267 278 283 276 239 193 181 204 216 217 219 216 222 230 224 226 232 232 231 234 236 238 241 240 238 238 238 238 238 236 231 225 220 216 216 218 220 221 223 224 226 229 232 237 242 248 256 266 276 287 297 304 309 312 316 319 321 322 321 320 320 321 322 322
89 206 241 326 348 257 188 203 199 191 173 153 176 191 210 189 125 197 233 125 144 200 238 269 278 272 244 157 179 205 212 206 201 205 213 220 223 225 228 228 230 233 236 241 245 244 241 239 238 236 234 233 229 223 217 215 216 218 220 221 222 223 224 227 230 233 239 245 255 266 277 290 299 305 310 314 318 321 322 322 321 322 322 323 324 323
150 200 222 224 266 231 221 221 206 187 177 175 188 193 194 184 137 198 249 218 151 199 204 193 264 271 256 141 184 202 198 204 203 207 217 216 218 224 227 229 232 236 240 246 248 246 243 240 237 234 232 230 225 220 215 214 216 217 219 220 221 222 223 225 228 231 238 246 255 268 282 293 301 307 313 317 320 321 322 322 322 323 324 324 324 323
147 145 216 233 242 237 241 280 48 151 152 157 207 195 179 181 169 192 231 230 149 226 220 123 264 269 252 135 181 193 182 205 206 204 214 217 219 226 231 232 236 241 245 248 249 246 243 240 236 233 231 228 223 218 215 215 215 217 218 218 218 220 221 222 225 229 237 246 257 272 286 295 303 310 314 318 321 322 322 323 324 325 326 325 325 324
124 146 215 245 265 292 14 34 30 53 104 143 242 189 170 203 201 205 224 193 160 227 213 120 254 262 265 122 199 207 195 218 217 210 213 222 228 233 236 235 239 244 247 248 248 245 242 238 235 232 230 226 221 217 215 215 215 215 216 216 216 218 218 219 223 229 237 247 261 276 288 298 305 311 316 319 322 323 323 324 326 327 327 326 325 324
166 191 196 226 270 285 298 324 349 347 157 209 234 182 190 217 214 228 300 127 236 230 178 162 249 257 268 53 221 239 231 236 238 228 225 230 236 238 238 241 246 249 251 250 248 245 241 238 236 234 231 225 220 215 214 214 214 214 214 214 215 215 215 218 223 230 239 249 264 278 290 300 307 313 317 320 322 323 323 325 328 329 329 328 326 325
173 193 180 200 236 240 247 250 235 197 191 219 228 178 190 205 204 210 225 223 237 223 156 188 248 258 267 261 225 246 251 246 250 247 240 240 244 245 247 252 254 256 257 254 250 246 243 240 238 234 229 224 219 215 214 213 212 213 213 213 213 212 213 218 223 230 240 251 265 280 291 301 309 314 318 321 322 323 325 328 330 330 329 328 326 324
159 197 192 211 230 228 240 248 220 130 150 208 211 197 201 208 206 203 226 235 229 173 180 227 242 256 270 271 257 239 233 244 250 250 244 246 251 255 259 262 262 262 261 256 251 247 243 240 237 233 228 223 218 215 213 213 212 211 212 211 209 209 213 218 223 231 242 254 268 282 294 304 311 315 318 320 321 323 327 330 330 330 329 327 325 325
142 215 209 222 233 231 240 248 228 146 180 210 202 207 214 212 202 200 225 233 210 132 236 240 242 252 266 269 264 253 243 253 258 255 253 257 261 264 265 266 263 262 259 253 248 246 243 239 236 232 228 222 217 214 212 212 212 212 211 209 207 209 213 218 224 232 243 256 271 285 297 306 312 315 318 319 321 325 329 331 330 330 328 326 325 325
172 227 221 227 237 237 243 250 237 185 202 211 195 211 223 216 202 205 227 234 216 215 241 246 248 254 257 260 262 260 257 259 262 266 268 268 266 266 265 263 260 260 257 252 250 248 244 241 237 232 227 221 215 213 211 211 211 210 208 206 205 208 213 218 224 233 245 259 274 289 301 308 313 316 318 319 323 328 330 330 330 329 328 327 326 325
180 234 235 236 245 246 247 251 241 207 224 236 212 219 234 230 213 210 229 237 229 231 245 254 256 258 257 257 262 273 274 268 269 274 275 270 265 265 265 261 261 260 256 253 254 252 246 243 239 232 226 220 216 213 211 210 210 207 205 203 204 208 212 218 225 234 248 263 278 293 303 309 313 315 317 321 326 329 329 329 329 328 327 326 325 324
201 230 238 243 256 254 250 255 247 209 224 242 242 244 246 242 227 222 235 240 239 244 253 257 260 260 257 259 269 282 277 274 275 276 274 272 271 272 271 268 266 263 259 257 257 254 248 242 236 230 226 221 217 214 211 211 209 205 203 202 204 209 212 218 227 237 251 267 283 296 305 310 313 315 318 324 328 329 329 329 328 327 326 326 326 324
209 231 238 246 258 253 249 257 251 208 210 237 243 246 248 247 239 237 242 240 239 252 260 259 257 254 257 265 273 267 265 267 269 269 268 270 272 272 272 274 272 265 261 262 259 253 247 241 234 231 228 222 217 214 212 211 207 203 202 202 204 208 212 219 229 241 255 271 288 299 307 311 312 316 321 326 329 328 328 328 327 326 325 325 325 325
186 201 224 233 247 252 250 254 246 163 186 240 238 240 247 251 248 249 254 251 235 234 251 256 255 256 263 272 267 260 260 255 254 258 261 265 268 268 270 271 271 267 266 266 262 255 250 244 239 235 230 223 218 215 212 210 206 202 201 202 204 207 213 221 231 244 259 276 293 302 308 310 312 317 324 327 328 328 328 327 326 325 325 326 326 326
182 203 228 231 243 252 247 244 110 177 235 246 235 221 237 246 249 252 258 259 247 236 241 249 256 263 267 266 262 266 269 262 259 260 262 262 261 263 268 269 268 269 269 267 263 258 253 246 240 234 228 223 218 214 211 207 203 201 200 201 204 207 213 223 233 247 264 283 297 303 307 309 313 320 325 327 328 327 327 326 325 325 325 326 327 327
211 215 228 231 243 253 190 118 222 231 235 250 300 237 236 237 244 253 260 260 254 250 249 248 253 260 263 264 265 265 265 265 268 269 267 262 257 260 265 267 267 268 269 267 264 261 254 244 236 230 224 221 217 211 206 201 198 199 199 199 203 207 214 224 234 250 270 287 297 302 305 310 316 323 326 326 327 327 325 325 325 325 326 327 328 329
225 223 230 228 234 246 149 198 232 245 271 319 289 260 245 228 236 253 264 261 251 251 253 251 252 257 260 265 265 261 263 268 272 273 270 265 260 261 260 261 265 267 268 270 269 264 257 247 240 233 225 220 214 206 202 198 196 196 196 198 202 207 215 225 235 253 273 288 296 301 305 311 319 324 326 326 326 326 325 324 325 326 325 326 328 331
223 225 231 230 227 233 231 227 241 279 301 283 265 254 240 218 224 236 255 261 254 251 252 249 252 256 257 258 260 261 268 278 278 273 272 267 261 262 261 262 267 270 271 273 271 265 259 249 239 231 224 217 209 201 198 197 195 194 194 198 202 207 214 224 237 255 274 288 295 301 306 313 321 324 324 325 325 325 323 323 326 326 325 326 329 332
221 220 222 231 228 224 240 247 244 251 251 243 247 254 250 223 204 203 228 260 260 255 254 248 247 254 256 254 257 261 271 281 271 270 274 271 264 262 263 265 268 268 265 263 259 252 245 237 229 225 221 212 203 197 196 194 193 193 194 198 202 207 214 223 237 256 275 287 295 301 308 315 321 323 323 325 325 323 322 324 326 326 325 327 330 333
221 220 221 235 238 222 235 246 232 233 241 235 247 259 251 181 159 146 218 258 255 253 255 252 246 249 251 251 254 252 242 259 261 262 269 272 270 263 263 265 263 259 253 250 249 245 238 230 224 219 215 206 198 194 193 192 191 193 195 198 202 206 213 223 238 258 276 288 295 302 310 318 321 321 323 326 325 321 321 324 325 326 327 329 331 333
216 215 220 230 234 229 233 240 237 241 245 235 248 257 197 148 139 110 261 256 254 250 248 245 241 241 239 240 245 238 216 235 248 255 262 269 271 263 261 259 252 249 247 244 242 238 233 227 220 212 206 201 195 191 190 190 190 193 195 198 201 206 213 224 241 263 277 287 296 303 311 319 321 321 323 325 323 319 320 323 325 327 329 331 332 334
208 208 217 222 227 228 228 235 243 240 230 237 240 198 134 130 130 183 241 250 253 236 227 224 225 231 229 224 222 219 224 233 241 250 255 259 260 254 250 248 242 239 242 242 238 232 225 221 217 211 202 196 193 190 189 189 190 192 194 197 201 205 213 226 245 265 277 288 297 304 313 319 320 322 324 322 319 318 321 323 325 329 332 334 335 337
193 199 215 218 225 227 225 235 245 232 221 228 205 149 140 146 201 226 238 247 244 204 210 217 220 225 224 216 212 218 230 237 240 243 247 249 250 245 238 237 233 227 228 230 229 226 218 210 207 203 196 191 191 190 189 189 190 192 194 196 200 205 215 229 248 265 277 290 297 304 315 320 320 322 323 319 316 318 321 324 327 330 334 337 338 339
183 190 211 204 210 222 223 228 235 232 217 206 181 148 159 202 231 233 240 251 249 237 224 221 224 227 221 216 218 225 233 239 237 237 240 243 244 242 239 238 234 229 227 225 221 219 212 204 199 195 191 189 189 189 189 189 191 192 193 195 199 205 217 231 249 267 279 289 296 305 316 319 318 320 319 315 314 317 323 326 328 332 338 341 340 342
177 189 214 200 194 206 220 215 212 231 215 187 174 186 206 212 226 235 238 245 248 246 240 233 235 237 231 223 225 232 236 237 234 233 235 235 236 238 239 239 234 229 226 223 218 211 206 201 196 191 189 188 187 188 189 189 191 192 192 195 200 206 219 234 249 268 280 285 293 306 314 315 315 316 315 312 312 319 327 329 330 336 341 343 344 346
189 199 219 223 204 203 221 221 208 224 221 195 191 209 217 215 223 233 236 237 241 244 245 243 243 243 239 233 233 236 239 238 235 232 231 231 232 233 233 234 231 226 221 215 210 204 201 200 195 189 187 186 186 187 187 188 191 192 192 195 200 207 221 236 250 267 275 279 289 303 309 309 310 313 312 310 313 322 330 332 335 340 343 346 349 349
207 211 223 231 221 219 231 235 215 218 224 210 209 219 224 223 224 230 236 240 242 244 247 248 248 248 245 239 235 237 240 240 236 231 229 229 228 226 226 224 220 216 213 208 203 200 198 197 194 189 185 184 184 185 186 186 189 192 195 197 202 211 224 235 251 264 266 270 279 290 300 303 307 312 310 308 316 328 333 335 340 342 344 349 352 352
219 222 229 229 224 227 231 223 216 222 225 220 220 223 228 232 232 232 236 240 244 246 248 250 252 253 251 244 240 240 241 239 233 229 227 225 223 221 220 217 212 210 211 209 206 202 197 195 192 188 185 184 182 184 186 186 187 191 195 199 204 213 224 234 249 258 256 258 265 274 287 296 303 308 308 310 320 331 336 339 342 344 347 351 353 354
219 217 225 230 227 232 235 223 222 231 231 228 229 228 229 235 238 239 240 241 244 247 250 251 253 253 250 248 246 243 240 237 233 230 226 223 222 219 216 214 211 208 207 206 205 202 198 195 192 188 186 185 183 183 186 187 188 190 194 200 207 215 223 234 245 250 249 249 255 270 282 291 300 305 307 314 325 332 339 344 345 348 352 355 357 357
260 219 219 237 237 238 244 240 237 246 244 238 238 236 234 236 239 240 242 243 244 247 251 252 254 252 248 249 248 244 239 237 236 233 227 223 221 218 216 214 211 208 205 203 203 202 199 195 192 188 186 185 184 184 185 186 188 190 193 200 209 214 222 234 240 242 243 243 250 267 281 291 303 306 307 320 334 338 342 345 348 355 359 360 2 0
278 252 234 243 243 240 241 234 232 242 248 242 240 240 239 240 241 242 244 245 245 247 249 250 252 251 249 250 248 243 240 239 237 232 227 226 225 222 218 212 206 204 204 202 200 199 196 193 191 188 186 186 186 185 185 186 189 191 194 202 209 213 221 232 237 235 234 237 249 267 281 294 305 306 310 331 352 353 350 348 348 352 358 2 4 0
235 242 235 242 249 251 250 239 232 236 244 246 246 246 246 245 243 242 244 246 246 247 248 249 249 248 248 249 248 244 242 241 237 229 226 227 227 225 219 212 206 202 200 199 197 193 190 190 190 189 188 188 187 186 187 189 190 192 197 203 207 211 218 227 232 229 226 231 247 264 282 298 306 308 317 341 2 6 6 3 356 351 352 357 357 356